Flag for Congo Dem.Rep. Weather past 2 weeks in Bukavu, Congo Dem.Rep.

Now
86 °F

Thunderstorms. Partly sunny.


Feels Like: 87 °F
Forecast: 52 / 78 °F
Wind: 7 mph from South

Location: Kigali Airport

Current Time: Feb 27, 2015 at 3:52:10 PM

Latest Report: Feb 27, 2015 at 3:30 PM


Visibility: N/A

Pressure: 29.98 "Hg

Humidity: 46%

Dew point: 63 °F

Location of BukavuLocation

Historic Weather in Bukavu — Graph

°F

Bukavu temperature yesterday

Maximum temperature yesterday: 82 °F (at 2:30 PM)
Minimum temperature yesterday: 61 °F (at 2:30 AM)
Average temperature yesterday: 71 °F

Past Weeks' High & Low Weather Summary

 TemperatureHumidityPressure
High86 °F (Feb 12, 2:00 PM)100% (Feb 13, 3:00 AM)30.74 "Hg (Feb 13, 3:00 AM)
Low59 °F (Feb 21, 4:00 AM)40% (Feb 14, 12:00 PM)29.95 "Hg (Feb 19, 4:00 PM)
Average70 °F81%30.09 "Hg
* Reported Feb 12 2:00 PM — Feb 27 2:30 PM, Bukavu, Weather by CustomWeather, © 2015

Note: Actual official high and low records may vary slightly from our data, if they occured in-between our weather recording intervals... More about our weather records

Advertising

Bukavu weather history for previous 24 hours

 ConditionsComfort  
Time TempWeatherWind HumidityBarometerVisibility
2:30 PM
Fri, Feb 27
84 °FPartly sunny.7 mph43%30.01 "HgN/A
2:00 PM84 °FPartly sunny.7 mph43%30.04 "HgN/A
1:30 PM84 °FPartly sunny.7 mph43%30.04 "HgN/A
1:00 PM84 °FPartly sunny.5 mph48%30.04 "HgN/A
12:30 PM84 °FScattered clouds.5 mph48%30.07 "HgN/A
12:00 PM82 °FScattered clouds.6 mph48%30.07 "HgN/A
11:30 AM81 °FScattered clouds.5 mph51%30.09 "HgN/A
11:00 AM79 °FPassing clouds.3 mph65%30.12 "HgN/A
10:30 AM79 °FPassing clouds.3 mph65%30.12 "HgN/A
10:00 AM77 °FPassing clouds.No wind69%30.12 "HgN/A
9:30 AM79 °FPassing clouds.No wind61%30.12 "HgN/A
9:00 AM75 °FPassing clouds.No wind65%30.12 "HgN/A
8:30 AM72 °FPassing clouds.3 mph73%30.12 "Hg5 mi
8:00 AM66 °FPassing clouds.3 mph88%30.12 "Hg5 mi
7:30 AM63 °FPassing clouds.3 mph100%30.09 "Hg5 mi
7:00 AM63 °FPassing clouds.3 mph100%30.09 "Hg5 mi
6:30 AM61 °FClear.3 mph100%30.09 "Hg5 mi
5:30 AM61 °FPassing clouds.No wind100%30.07 "HgN/A
5:00 AM61 °FPassing clouds.No wind100%30.07 "HgN/A
4:30 AM63 °FPassing clouds.5 mph94%30.07 "HgN/A
4:00 AM63 °FPassing clouds.5 mph100%30.04 "HgN/A
3:30 AM63 °FPassing clouds.No wind100%30.04 "HgN/A
3:00 AM63 °FPassing clouds.No wind100%30.04 "HgN/A
2:30 AM64 °FPassing clouds.No wind94%30.04 "HgN/A
2:00 AM64 °FMild.5 mph94%30.04 "HgN/A
1:30 AM64 °FClear.No wind94%30.04 "Hg10 mi
1:00 AM66 °FClear.No wind88%30.07 "Hg10 mi
12:30 AM66 °FPassing clouds.5 mph88%30.07 "HgN/A
12:00 AM66 °FPassing clouds.3 mph88%30.07 "HgN/A
11:30 PM
Thu, Feb 26
68 °FPassing clouds.5 mph88%30.07 "HgN/A
11:00 PM68 °FPassing clouds.No wind88%30.07 "HgN/A
10:30 PM68 °FPassing clouds.No wind88%30.07 "HgN/A
10:00 PM70 °FPassing clouds.No wind83%30.04 "HgN/A
9:30 PM70 °FPassing clouds.No wind83%30.04 "HgN/A
9:00 PM72 °FPassing clouds.No wind73%30.04 "HgN/A
8:30 PM72 °FPassing clouds.No wind73%30.04 "HgN/A
8:00 PM73 °FPassing clouds.No wind74%30.04 "HgN/A
7:30 PM75 °FPassing clouds.No wind65%30.04 "HgN/A
7:00 PM77 °FPassing clouds.5 mph61%30.04 "HgN/A
6:30 PM77 °FPassing clouds.6 mph65%30.04 "HgN/A
5:00 PM82 °FPartly sunny.5 mph51%30.01 "HgN/A
4:30 PM82 °FPartly sunny.5 mph48%30.01 "HgN/A
3:30 PM82 °FPartly sunny.5 mph51%30.04 "HgN/A
3:00 PM82 °FPartly sunny.5 mph51%30.04 "HgN/A
Weather by CustomWeather, © 2015

See weather overviewHow to use our weather pages